• In Deutschland
  • Länderverzeichnis
  • Für 7 Tage
  • Wassertemperatur
  • Satellitenkarten
  • Wetterkarte
  • Widgets
  • user-avatar
    Anmelden

    Stündliche Wetter Kalgoorlie

    Heute, 21 Januar, Sonntag

    Zeit Temperatur Niederschläge Wind Luftdruck Luftfeuchtigkeit
    00:00 +29°C° 0,2 mm 7 m/S 726 mmHg 48%
    01:00 +28°C° 0,2 mm 7 m/S 726 mmHg 50%
    02:00 +27°C° 0 mm 6 m/S 725 mmHg 55%
    03:00 +27°C° 1,2 mm 6 m/S 726 mmHg 60%
    04:00 +26°C° 1,2 mm 5 m/S 726 mmHg 65%
    05:00 +25°C° 1,2 mm 5 m/S 726 mmHg 69%
    06:00 +26°C° 1,7 mm 5 m/S 726 mmHg 70%
    07:00 +26°C° 1,7 mm 6 m/S 726 mmHg 70%
    08:00 +26°C° 1,7 mm 6 m/S 726 mmHg 70%
    09:00 +27°C° 1,1 mm 6 m/S 726 mmHg 66%
    10:00 +29°C° 1,1 mm 7 m/S 726 mmHg 61%
    11:00 +30°C° 1,1 mm 7 m/S 726 mmHg 56%
    12:00 +32°C° 0,1 mm 7 m/S 726 mmHg 52%
    13:00 +34°C° 0,1 mm 6 m/S 725 mmHg 47%
    14:00 +35°C° 0,1 mm 6 m/S 725 mmHg 42%
    15:00 +35°C° 0,1 mm 6 m/S 725 mmHg 43%
    16:00 +35°C° 0,1 mm 5 m/S 724 mmHg 43%
    17:00 +34°C° 0,1 mm 5 m/S 724 mmHg 44%
    18:00 +33°C° 1 mm 5 m/S 724 mmHg 48%
    19:00 +32°C° 1 mm 4 m/S 724 mmHg 52%
    20:00 +30°C° 1 mm 4 m/S 724 mmHg 56%
    21:00 +30°C° 0,8 mm 4 m/S 725 mmHg 59%
    22:00 +29°C° 0,8 mm 3 m/S 725 mmHg 63%
    23:00 +28°C° 0,8 mm 3 m/S 725 mmHg 66%

    Morgen, 22 Januar, Montag

    Zeit Temperatur Niederschläge Wind Luftdruck Luftfeuchtigkeit
    00:00 +28°C° 0,6 mm 4 m/S 725 mmHg 68%
    01:00 +27°C° 0,6 mm 4 m/S 725 mmHg 71%
    02:00 +27°C° 0,6 mm 5 m/S 725 mmHg 73%
    03:00 +26°C° 0,5 mm 4 m/S 725 mmHg 75%
    04:00 +26°C° 0,5 mm 4 m/S 726 mmHg 77%
    05:00 +25°C° 0,5 mm 4 m/S 726 mmHg 78%
    06:00 +26°C° 0,3 mm 4 m/S 726 mmHg 73%
    07:00 +28°C° 0,3 mm 4 m/S 726 mmHg 67%
    08:00 +29°C° 0,3 mm 4 m/S 727 mmHg 62%
    09:00 +30°C° 0 mm 4 m/S 727 mmHg 56%
    10:00 +33°C° 0 mm 4 m/S 726 mmHg 50%
    11:00 +35°C° 0 mm 5 m/S 726 mmHg 44%
    12:00 +36°C° 0 mm 4 m/S 726 mmHg 42%
    13:00 +36°C° 0 mm 4 m/S 726 mmHg 39%
    14:00 +37°C° 0 mm 4 m/S 725 mmHg 37%
    15:00 +37°C° 0 mm 4 m/S 725 mmHg 37%
    16:00 +37°C° 0 mm 5 m/S 725 mmHg 37%
    17:00 +37°C° 0 mm 5 m/S 724 mmHg 37%
    18:00 +35°C° 7,1 mm 5 m/S 725 mmHg 44%
    19:00 +34°C° 7,1 mm 5 m/S 725 mmHg 51%
    20:00 +32°C° 7,1 mm 5 m/S 725 mmHg 58%
    21:00 +30°C° 4 mm 6 m/S 725 mmHg 61%
    22:00 +29°C° 4 mm 7 m/S 726 mmHg 65%
    23:00 +28°C° 4 mm 9 m/S 726 mmHg 68%

    übermorgen, 23 Januar, Dienstag

    Zeit Temperatur Niederschläge Wind Luftdruck Luftfeuchtigkeit
    00:00 +28°C° 0,3 mm 8 m/S 725 mmHg 69%
    01:00 +27°C° 0,3 mm 7 m/S 725 mmHg 69%
    02:00 +26°C° 0,3 mm 6 m/S 725 mmHg 70%
    03:00 +26°C° 0,1 mm 6 m/S 725 mmHg 70%
    04:00 +24°C° 0,1 mm 6 m/S 725 mmHg 70%
    05:00 +24°C° 0,1 mm 6 m/S 725 mmHg 69%
    06:00 +24°C° 0 mm 7 m/S 725 mmHg 66%
    07:00 +26°C° 0 mm 7 m/S 726 mmHg 62%
    08:00 +27°C° 0 mm 7 m/S 726 mmHg 59%
    09:00 +29°C° 0 mm 6 m/S 726 mmHg 53%
    10:00 +32°C° 0 mm 6 m/S 726 mmHg 47%
    11:00 +34°C° 0 mm 5 m/S 725 mmHg 41%
    12:00 +35°C° 0 mm 4 m/S 725 mmHg 38%
    13:00 +37°C° 0 mm 3 m/S 724 mmHg 35%
    14:00 +38°C° 0 mm 2 m/S 724 mmHg 32%
    15:00 +38°C° 0,5 mm 3 m/S 724 mmHg 32%
    16:00 +38°C° 0,5 mm 4 m/S 723 mmHg 33%
    17:00 +39°C° 0,5 mm 5 m/S 723 mmHg 33%
    18:00 +35°C° 6,9 mm 6 m/S 723 mmHg 45%
    19:00 +32°C° 6,9 mm 7 m/S 723 mmHg 57%
    20:00 +28°C° 6,9 mm 9 m/S 723 mmHg 69%
    21:00 +28°C° 6,1 mm 9 m/S 723 mmHg 73%
    22:00 +27°C° 6,1 mm 9 m/S 724 mmHg 76%
    23:00 +26°C° 6,1 mm 10 m/S 724 mmHg 79%

    24 Januar, Mittwoch

    Zeit Temperatur Niederschläge Wind Luftdruck Luftfeuchtigkeit
    00:00 +26°C° 1,9 mm 9 m/S 724 mmHg 76%
    01:00 +26°C° 1,9 mm 9 m/S 723 mmHg 73%
    02:00 +26°C° 1,9 mm 9 m/S 723 mmHg 70%
    03:00 +26°C° 0,2 mm 7 m/S 723 mmHg 68%
    04:00 +26°C° 0,2 mm 6 m/S 723 mmHg 66%
    05:00 +26°C° 0,2 mm 5 m/S 722 mmHg 64%
    06:00 +27°C° 0,1 mm 5 m/S 723 mmHg 63%
    07:00 +27°C° 0,1 mm 6 m/S 723 mmHg 62%
    08:00 +28°C° 0,1 mm 6 m/S 723 mmHg 61%
    09:00 +30°C° 0 mm 6 m/S 723 mmHg 55%
    10:00 +33°C° 0 mm 5 m/S 723 mmHg 48%
    11:00 +35°C° 0 mm 5 m/S 722 mmHg 42%
    12:00 +36°C° 0 mm 4 m/S 722 mmHg 38%
    13:00 +37°C° 0 mm 3 m/S 721 mmHg 34%
    14:00 +39°C° 0 mm 2 m/S 720 mmHg 30%
    15:00 +40°C° 0 mm 4 m/S 719 mmHg 31%
    16:00 +39°C° 0 mm 5 m/S 719 mmHg 32%
    17:00 +39°C° 0 mm 6 m/S 718 mmHg 34%
    18:00 +38°C° 0 mm 7 m/S 719 mmHg 36%
    19:00 +37°C° 0 mm 8 m/S 719 mmHg 38%
    20:00 +35°C° 0 mm 8 m/S 719 mmHg 40%
    21:00 +34°C° 0 mm 8 m/S 719 mmHg 45%
    22:00 +32°C° 0 mm 8 m/S 720 mmHg 50%
    23:00 +31°C° 0 mm 8 m/S 720 mmHg 55%

    25 Januar, Donnerstag

    Zeit Temperatur Niederschläge Wind Luftdruck Luftfeuchtigkeit
    00:00 +29°C° 0 mm 8 m/S 719 mmHg 59%
    01:00 +28°C° 0 mm 8 m/S 719 mmHg 62%
    02:00 +27°C° 0 mm 8 m/S 719 mmHg 66%
    03:00 +26°C° 0 mm 7 m/S 719 mmHg 69%
    04:00 +24°C° 0 mm 7 m/S 719 mmHg 72%
    05:00 +24°C° 0 mm 7 m/S 720 mmHg 74%
    06:00 +24°C° 0 mm 7 m/S 720 mmHg 72%
    07:00 +26°C° 0 mm 7 m/S 720 mmHg 70%
    08:00 +26°C° 0 mm 7 m/S 720 mmHg 67%
    09:00 +28°C° 0 mm 6 m/S 720 mmHg 60%
    10:00 +30°C° 0 mm 6 m/S 720 mmHg 52%
    11:00 +33°C° 0 mm 5 m/S 720 mmHg 44%
    12:00 +34°C° 0 mm 5 m/S 720 mmHg 42%
    13:00 +35°C° 0 mm 5 m/S 719 mmHg 39%
    14:00 +36°C° 0 mm 5 m/S 719 mmHg 37%
    15:00 +35°C° 0 mm 6 m/S 719 mmHg 39%
    16:00 +35°C° 0 mm 7 m/S 719 mmHg 41%
    17:00 +34°C° 0 mm 7 m/S 720 mmHg 43%
    18:00 +33°C° 0 mm 8 m/S 720 mmHg 48%
    19:00 +31°C° 0 mm 8 m/S 721 mmHg 53%
    20:00 +29°C° 0 mm 8 m/S 721 mmHg 58%
    21:00 +28°C° 0 mm 8 m/S 722 mmHg 61%
    22:00 +27°C° 0 mm 8 m/S 722 mmHg 65%
    23:00 +26°C° 0 mm 8 m/S 722 mmHg 68%

    26 Januar, Freitag

    Zeit Temperatur Niederschläge Wind Luftdruck Luftfeuchtigkeit
    00:00 +24°C° 0 mm 7 m/S 722 mmHg 70%
    01:00 +24°C° 0 mm 7 m/S 722 mmHg 72%
    02:00 +23°C° 0 mm 6 m/S 721 mmHg 74%
    03:00 +23°C° 0 mm 6 m/S 722 mmHg 76%
    04:00 +22°C° 0 mm 5 m/S 722 mmHg 77%
    05:00 +22°C° 0 mm 4 m/S 722 mmHg 78%
    06:00 +23°C° 0 mm 4 m/S 722 mmHg 74%
    07:00 +24°C° 0 mm 3 m/S 723 mmHg 70%
    08:00 +25°C° 0 mm 3 m/S 723 mmHg 67%
    09:00 +27°C° 0 mm 2 m/S 723 mmHg 60%
    10:00 +29°C° 0 mm 2 m/S 722 mmHg 53%
    11:00 +31°C° 0 mm 1 m/S 722 mmHg 46%
    12:00 +32°C° 0 mm 1 m/S 722 mmHg 39%
    13:00 +35°C° 0 mm 2 m/S 721 mmHg 33%
    14:00 +36°C° 0 mm 2 m/S 721 mmHg 27%
    15:00 +37°C° 0 mm 2 m/S 721 mmHg 25%
    16:00 +37°C° 0 mm 2 m/S 721 mmHg 22%
    17:00 +38°C° 0 mm 2 m/S 721 mmHg 20%
    18:00 +37°C° 0 mm 3 m/S 721 mmHg 22%
    19:00 +36°C° 0 mm 3 m/S 721 mmHg 24%
    20:00 +35°C° 0 mm 4 m/S 722 mmHg 26%
    21:00 +34°C° 0 mm 4 m/S 722 mmHg 28%
    22:00 +34°C° 0 mm 4 m/S 722 mmHg 30%
    23:00 +33°C° 0 mm 4 m/S 722 mmHg 32%
    Mehr zeigen